Location: Newark
(42.7133°N, 87.7910°W)
Time: 10:19:17
(UTC+00:00)

SR - Pass Details

Date: 29 October 2019
Orbit: 573 x 882 km, 66.7° (Epoch: 20 November)

Event Time Altitude Azimuth Distance (km) Brightness Sun altitude
Exits shadow 09:44:19 18° 350° (N) 2,004 ? -29.3°
Maximum altitude 09:48:12 39° 50° (NE) 1,291 ? -28.6°
Drops below altitude 10° 09:53:41 10° 119° (ESE) 2,512 ? -27.6°
Sets 09:56:18 0° 127° (SE) 3,423 ? -27.1°
